Total_Precipitation_Accumulation
1.65 1.72 1.85 1.97 2.06 1.97 1.89 1.78 1.86 1.97 2.03 2.06 2.16 2.32 2.41 2.53 2.76 2.92 2.85 2.98 2.95 2.91 2.86 2.99 3.14 3.38 3.33 3.15 3.35 3.53 3.78 4.08 3.66 3.26 3.07 2.82 2.83 2.71 2.61 2.46 2.30 2.29 2.08
1.73 1.84 2.11 2.13 2.11 2.00 1.84 1.77 1.86 1.95 1.98 1.98 2.11 2.27 2.28 2.46 2.72 2.81 2.75 2.93 2.99 2.89 2.92 3.08 3.03 3.14 3.24 3.20 3.22 3.24 3.50 3.79 3.64 3.44 3.46 3.31 3.13 2.97 2.91 2.75 2.28 2.12 2.10
1.92 2.03 2.22 2.24 2.16 1.96 1.87 1.85 1.90 1.96 2.03 2.03 2.02 2.06 2.18 2.38 2.56 2.67 2.82 2.92 3.01 3.05 3.06 2.99 2.89 3.05 3.12 3.33 3.36 3.27 3.30 3.43 3.61 3.47 3.37 3.41 3.14 2.91 3.02 2.82 2.55 2.55 2.07
1.75 1.85 1.95 1.94 1.94 1.86 1.88 1.89 1.89 1.92 1.92 1.97 2.01 2.08 2.16 2.26 2.35 2.54 2.71 2.69 2.69 2.73 2.72 2.71 2.68 2.75 2.86 3.27 3.28 3.30 3.31 3.35 3.55 3.54 3.45 3.43 3.44 3.20 3.16 2.94 2.81 2.67 2.31
1.65 1.71 1.78 1.84 1.89 1.91 1.85 1.76 1.81 1.88 1.84 1.97 2.05 2.04 2.09 2.11 2.04 2.19 2.23 2.21 2.40 2.36 2.25 2.17 2.14 2.28 2.31 2.49 2.48 2.84 3.17 3.24 3.33 3.44 3.42 3.40 3.39 3.54 3.26 3.09 3.05 2.93 2.68
1.52 1.56 1.75 1.87 1.89 1.86 1.76 1.78 1.84 1.90 1.95 2.03 2.07 2.06 2.03 1.85 2.03 2.06 2.02 1.99 2.07 2.05 1.98 1.95 1.82 1.85 1.90 1.94 1.93 2.13 2.46 2.77 3.09 3.34 3.33 3.34 3.39 3.52 3.60 3.45 3.33 3.13 2.91
1.47 1.53 1.61 1.72 1.77 1.67 1.59 1.66 1.73 1.82 1.95 2.02 2.09 2.18 2.17 2.24 2.25 2.07 1.97 1.88 1.90 1.87 1.85 1.88 1.58 1.44 1.64 1.55 1.72 1.81 1.88 2.07 2.26 2.71 2.99 3.02 3.17 3.31 3.59 3.47 3.42 3.32 3.12
1.67 1.74 1.70 1.79 1.95 1.97 1.93 1.93 2.00 2.06 2.06 2.08 2.10 2.17 2.26 2.22 2.28 2.07 1.94 1.74 1.73 1.77 1.78 1.81 1.75 1.66 1.67 1.75 1.84 1.80 1.70 1.73 1.84 1.88 1.99 2.25 2.53 2.92 3.28 3.40 3.52 3.49 3.41
1.86 1.95 1.94 1.94 2.10 2.23 2.23 2.28 2.36 2.39 2.24 2.21 2.26 2.27 2.30 2.35 2.38 2.07 1.90 1.71 1.74 1.75 1.69 1.74 1.80 1.70 1.77 1.75 1.77 1.82 1.75 1.67 1.67 1.74 1.65 1.80 1.98 2.22 2.56 2.81 2.97 3.21 3.41
2.11 2.13 2.20 2.28 2.34 2.45 2.65 2.87 2.94 2.92 2.84 2.68 2.47 2.42 2.34 2.34 2.38 2.11 1.99 1.80 1.85 1.93 1.96 1.93 1.93 1.81 1.74 1.68 1.62 1.68 1.63 1.59 1.68 1.68 1.58 1.50 1.52 1.67 1.95 2.11 2.33 2.66 2.90
2.52 2.55 2.59 2.68 2.77 2.87 3.14 3.27 3.30 3.27 3.38 3.27 3.02 2.84 2.72 2.64 2.55 2.31 2.29 2.12 2.18 2.26 2.17 2.08 1.96 1.88 1.64 1.54 1.49 1.47 1.49 1.58 1.73 1.86 1.85 1.70 1.62 1.58 1.64 1.82 2.08 2.29 2.42
2.74 2.71 2.79 3.01 2.94 2.99 3.30 3.26 3.32 3.48 3.50 3.40 3.41 3.26 3.08 3.00 2.72 2.50 2.41 2.27 2.18 2.16 2.12 1.99 1.90 1.85 1.58 1.45 1.36 1.32 1.40 1.43 1.45 1.57 1.67 1.71 1.67 1.57 1.60 1.77 2.00 2.21 2.23
2.73 2.78 2.93 3.14 3.29 3.38 3.58 3.68 3.61 3.54 3.44 3.35 3.39 3.26 3.13 3.05 2.87 2.53 2.32 2.27 2.18 2.01 2.00 2.05 1.95 1.82 1.65 1.46 1.47 1.45 1.37 1.34 1.41 1.46 1.47 1.59 1.66 1.67 1.72 1.87 2.03 2.25 2.25
2.79 2.85 2.98 3.15 3.28 3.36 3.52 3.57 3.56 3.46 3.39 3.37 3.32 3.15 3.00 2.89 2.74 2.53 2.32 2.20 2.14 2.00 1.95 2.00 1.90 1.73 1.57 1.49 1.53 1.46 1.35 1.42 1.52 1.48 1.48 1.57 1.78 1.90 1.86 1.85 2.01 2.16 2.27
2.91 3.00 3.10 3.24 3.39 3.49 3.41 3.47 3.50 3.43 3.34 3.20 3.12 3.08 3.04 2.90 2.82 2.65 2.38 2.22 2.16 2.10 2.00 1.92 1.85 1.73 1.61 1.55 1.59 1.65 1.67 1.67 1.60 1.57 1.65 1.70 1.81 1.95 1.94 1.99 2.09 2.13 2.07
2.95 3.03 3.06 3.10 3.22 3.22 3.21 3.21 3.26 3.18 3.16 2.95 2.91 2.87 2.75 2.74 2.67 2.41 2.24 2.17 2.18 2.20 2.01 1.89 1.97 1.97 1.87 1.79 1.80 1.82 1.83 1.80 1.77 1.84 1.89 1.87 1.85 1.88 1.87 1.99 2.16 2.19 2.12
2.96 3.00 2.95 2.94 3.00 3.07 3.10 3.09 3.02 2.99 2.97 2.81 2.73 2.59 2.43 2.46 2.40 2.34 2.33 2.30 2.26 2.16 1.96 1.96 2.06 2.12 2.14 2.12 2.05 1.94 1.90 1.84 1.82 1.85 1.86 1.87 1.88 1.95 1.99 2.06 2.17 2.23 2.22
2.85 2.86 2.72 2.69 2.83 3.01 3.04 3.09 3.11 3.04 2.97 2.84 2.74 2.66 2.42 2.26 2.24 2.30 2.41 2.34 2.17 2.03 1.94 2.08 2.18 2.24 2.29 2.27 2.15 2.03 1.95 1.90 1.86 1.89 1.96 2.03 2.06 2.10 2.10 2.09 2.16 2.22 2.31
2.78 2.79 2.76 2.76 2.83 2.96 3.09 3.21 3.21 3.05 2.95 2.83 2.58 2.43 2.41 2.31 2.26 2.26 2.16 1.99 2.02 2.09 2.12 2.22 2.26 2.25 2.17 2.10 2.05 2.01 1.93 1.89 1.88 1.90 1.93 1.99 2.06 2.11 2.13 2.18 2.25 2.41 2.42
2.65 2.85 2.91 2.75 2.76 2.88 3.01 3.10 3.13 3.12 3.03 2.93 2.74 2.47 2.30 2.16 2.01 2.05 1.96 1.90 1.94 1.97 2.03 2.08 2.17 2.24 2.21 2.15 2.09 2.02 1.97 1.93 1.89 1.88 1.88 1.92 2.03 2.07 2.03 2.09 2.18 2.21 2.23
2.58 2.63 2.80 2.66 2.57 2.66 2.80 2.82 2.87 2.86 2.74 2.65 2.59 2.46 2.31 2.10 2.02 1.98 1.97 1.94 1.89 1.84 1.90 1.99 2.01 2.01 1.96 1.93 1.95 1.93 1.93 1.97 1.94 1.92 1.96 1.99 2.05 2.06 1.98 1.96 1.99 2.02 2.02
2.63 2.62 2.51 2.45 2.45 2.51 2.56 2.57 2.57 2.52 2.47 2.42 2.32 2.21 2.14 1.94 1.92 1.90 1.86 1.84 1.80 1.74 1.73 1.71 1.75 1.78 1.75 1.72 1.75 1.80 1.81 1.80 1.83 1.85 1.87 1.89 1.95 1.95 1.94 1.96 1.97 2.00 2.08
2.62 2.57 2.47 2.37 2.26 2.34 2.34 2.30 2.27 2.22 2.23 2.22 2.16 1.99 1.89 1.82 1.76 1.68 1.62 1.56 1.54 1.54 1.56 1.56 1.60 1.62 1.57 1.53 1.53 1.62 1.65 1.60 1.60 1.68 1.78 1.83 1.82 1.75 1.77 1.83 1.86 1.96 2.04
2.47 2.46 2.41 2.33 2.20 2.13 2.15 2.18 2.17 2.13 2.13 2.05 1.95 1.82 1.74 1.72 1.64 1.52 1.44 1.38 1.36 1.33 1.36 1.40 1.37 1.33 1.35 1.40 1.44 1.45 1.44 1.40 1.38 1.45 1.49 1.56 1.61 1.59 1.63 1.68 1.68 1.75 1.93
2.22 2.21 2.25 2.28 2.12 1.97 2.02 2.07 2.02 1.95 1.91 1.84 1.73 1.68 1.62 1.52 1.47 1.42 1.39 1.34 1.29 1.32 1.29 1.29 1.29 1.25 1.25 1.24 1.25 1.24 1.29 1.26 1.20 1.20 1.24 1.33 1.42 1.48 1.53 1.62 1.74 1.87 2.00
1.98 1.99 1.98 1.97 1.88 1.76 1.82 1.94 1.96 1.85 1.80 1.69 1.55 1.52 1.54 1.50 1.44 1.41 1.36 1.33 1.30 1.24 1.23 1.22 1.21 1.16 1.13 1.12 1.09 1.09 1.13 1.09 1.09 1.15 1.13 1.18 1.32 1.43 1.49 1.59 1.64 1.77 1.85